Torna al catalogo

STARLINK-6110

AttivoComunicazioniVLEO
NORAD 56907·PAYLOAD·🇺🇸 United States

Lanciato Jun 12, 2023 da Cape Canaveral Space Force Station

Loading…

Prossimi Passaggi (prossime 24 ore)

TLE

AggiornatoSource: CelesTrak SupGP

Epoca: Sep 14, 2026, 13:30 UTC

1 56907C 23083AH  26257.56298611 -.00000978  00000+0 -35442-4 0  2577
2 56907  42.9997  83.7077 0001405 257.2912 247.1332 15.27578064    17

Traccia STARLINK-6110 in tempo reale con AllMySat

Download on the App Store